Previsão horária em Abaete

Hoje, 31 Outubro, Sábado

Tempo Temperatura Precipitação Vento Pressão Humidade
00:00 +25°C° 0.3 mm 1 m/s 705 mmHg 82%
01:00 +24°C° 0.3 mm 2 m/s 705 mmHg 85%
02:00 +22°C° 0.3 mm 3 m/s 705 mmHg 87%
03:00 +22°C° 0.3 mm 4 m/s 704 mmHg 89%
04:00 +21°C° 0 mm 4 m/s 705 mmHg 88%
05:00 +21°C° 0 mm 4 m/s 705 mmHg 87%
06:00 +20°C° 0 mm 4 m/s 705 mmHg 86%
07:00 +21°C° 0 mm 3 m/s 706 mmHg 82%
08:00 +22°C° 0 mm 3 m/s 706 mmHg 79%
09:00 +24°C° 0 mm 2 m/s 707 mmHg 75%
10:00 +25°C° 0 mm 2 m/s 706 mmHg 73%
11:00 +26°C° 0 mm 1 m/s 706 mmHg 71%
12:00 +26°C° 0 mm 1 m/s 706 mmHg 69%
13:00 +26°C° 0.1 mm 1 m/s 705 mmHg 70%
14:00 +26°C° 0.1 mm 1 m/s 705 mmHg 71%
15:00 +26°C° 0.1 mm 2 m/s 704 mmHg 73%
16:00 +26°C° 0.2 mm 2 m/s 704 mmHg 75%
17:00 +25°C° 0.2 mm 2 m/s 704 mmHg 78%
18:00 +24°C° 0.2 mm 3 m/s 704 mmHg 81%
19:00 +24°C° 0 mm 3 m/s 705 mmHg 82%
20:00 +23°C° 0 mm 2 m/s 705 mmHg 83%
21:00 +21°C° 0 mm 2 m/s 705 mmHg 84%
22:00 +21°C° 0 mm 2 m/s 705 mmHg 85%
23:00 +21°C° 0 mm 2 m/s 705 mmHg 85%

Amanhã, 1 Novembro, Domingo

Tempo Temperatura Precipitação Vento Pressão Humidade
00:00 +20°C° 0 mm 2 m/s 705 mmHg 86%
01:00 +20°C° 0 mm 2 m/s 704 mmHg 84%
02:00 +20°C° 0 mm 3 m/s 704 mmHg 83%
03:00 +20°C° 0 mm 3 m/s 703 mmHg 82%
04:00 +20°C° 0.2 mm 3 m/s 704 mmHg 82%
05:00 +20°C° 0.2 mm 3 m/s 704 mmHg 83%
06:00 +19°C° 0.2 mm 2 m/s 704 mmHg 83%
07:00 +20°C° 0.2 mm 2 m/s 704 mmHg 82%
08:00 +20°C° 0.2 mm 2 m/s 704 mmHg 81%
09:00 +21°C° 0.2 mm 2 m/s 705 mmHg 80%
10:00 +23°C° 0 mm 2 m/s 704 mmHg 78%
11:00 +23°C° 0 mm 2 m/s 704 mmHg 76%
12:00 +24°C° 0 mm 2 m/s 704 mmHg 75%
13:00 +25°C° 0 mm 2 m/s 703 mmHg 72%
14:00 +26°C° 0 mm 2 m/s 703 mmHg 70%
15:00 +27°C° 0 mm 2 m/s 702 mmHg 67%
16:00 +26°C° 0.5 mm 2 m/s 703 mmHg 72%
17:00 +25°C° 0.5 mm 2 m/s 703 mmHg 78%
18:00 +24°C° 0.5 mm 2 m/s 703 mmHg 83%
19:00 +22°C° 0.8 mm 3 m/s 703 mmHg 85%
20:00 +21°C° 0.8 mm 3 m/s 703 mmHg 87%
21:00 +21°C° 0.8 mm 3 m/s 704 mmHg 88%
22:00 +20°C° 0.1 mm 4 m/s 704 mmHg 88%
23:00 +20°C° 0.1 mm 4 m/s 704 mmHg 87%

Depois de amanhã, 2 Novembro, Segunda-feira

Tempo Temperatura Precipitação Vento Pressão Humidade
00:00 +19°C° 0.1 mm 4 m/s 704 mmHg 87%
01:00 +19°C° 0 mm 4 m/s 704 mmHg 85%
02:00 +18°C° 0 mm 4 m/s 704 mmHg 84%
03:00 +17°C° 0 mm 3 m/s 703 mmHg 83%
04:00 +17°C° 0 mm 3 m/s 704 mmHg 82%
05:00 +17°C° 0 mm 3 m/s 704 mmHg 81%
06:00 +17°C° 0 mm 3 m/s 704 mmHg 80%
07:00 +18°C° 0 mm 3 m/s 705 mmHg 77%
08:00 +19°C° 0 mm 3 m/s 705 mmHg 74%
09:00 +20°C° 0 mm 2 m/s 705 mmHg 71%
10:00 +23°C° 0 mm 2 m/s 705 mmHg 66%
11:00 +25°C° 0 mm 2 m/s 705 mmHg 62%
12:00 +27°C° 0 mm 2 m/s 705 mmHg 57%
13:00 +27°C° 0 mm 2 m/s 705 mmHg 58%
14:00 +27°C° 0 mm 2 m/s 704 mmHg 59%
15:00 +27°C° 0 mm 2 m/s 704 mmHg 61%
16:00 +26°C° 0.2 mm 2 m/s 703 mmHg 65%
17:00 +25°C° 0.2 mm 2 m/s 703 mmHg 69%
18:00 +24°C° 0.2 mm 2 m/s 703 mmHg 74%
19:00 +23°C° 0.2 mm 2 m/s 704 mmHg 76%
20:00 +23°C° 0.2 mm 2 m/s 704 mmHg 79%
21:00 +21°C° 0.2 mm 2 m/s 705 mmHg 81%
22:00 +21°C° 0.1 mm 2 m/s 705 mmHg 82%
23:00 +20°C° 0.1 mm 2 m/s 705 mmHg 83%

3 Novembro, Terça-feira

Tempo Temperatura Precipitação Vento Pressão Humidade
00:00 +20°C° 0.1 mm 2 m/s 705 mmHg 84%
01:00 +20°C° 0 mm 2 m/s 704 mmHg 84%
02:00 +19°C° 0 mm 2 m/s 704 mmHg 84%
03:00 +19°C° 0 mm 2 m/s 704 mmHg 83%
04:00 +19°C° 0 mm 2 m/s 704 mmHg 84%
05:00 +20°C° 0 mm 1 m/s 705 mmHg 84%
06:00 +20°C° 0 mm 1 m/s 705 mmHg 84%
07:00 +21°C° 0 mm 1 m/s 705 mmHg 82%
08:00 +20°C° 0 mm 2 m/s 706 mmHg 80%
09:00 +20°C° 0 mm 2 m/s 706 mmHg 78%
10:00 +23°C° 0 mm 2 m/s 706 mmHg 73%
11:00 +24°C° 0 mm 1 m/s 706 mmHg 68%
12:00 +26°C° 0 mm 1 m/s 707 mmHg 63%
13:00 +26°C° 0.3 mm 1 m/s 706 mmHg 62%
14:00 +27°C° 0.3 mm 1 m/s 705 mmHg 61%
15:00 +27°C° 0.3 mm 2 m/s 705 mmHg 60%
16:00 +26°C° 0.5 mm 2 m/s 705 mmHg 65%
17:00 +25°C° 0.5 mm 2 m/s 705 mmHg 70%
18:00 +24°C° 0.5 mm 2 m/s 704 mmHg 75%
19:00 +23°C° 0.9 mm 2 m/s 705 mmHg 79%
20:00 +23°C° 0.9 mm 2 m/s 705 mmHg 82%
21:00 +21°C° 0.9 mm 2 m/s 706 mmHg 85%
22:00 +21°C° 1.2 mm 2 m/s 705 mmHg 88%
23:00 +20°C° 1.2 mm 2 m/s 705 mmHg 91%

4 Novembro, Quarta-feira

Tempo Temperatura Precipitação Vento Pressão Humidade
00:00 +20°C° 1.2 mm 2 m/s 705 mmHg 94%
01:00 +19°C° 2.1 mm 2 m/s 705 mmHg 94%
02:00 +19°C° 2.1 mm 2 m/s 705 mmHg 95%
03:00 +19°C° 2.1 mm 2 m/s 705 mmHg 95%
04:00 +19°C° 2.6 mm 2 m/s 705 mmHg 96%
05:00 +19°C° 2.6 mm 2 m/s 705 mmHg 96%
06:00 +19°C° 2.6 mm 2 m/s 706 mmHg 96%
07:00 +19°C° 3.4 mm 2 m/s 706 mmHg 96%
08:00 +19°C° 3.4 mm 2 m/s 706 mmHg 96%
09:00 +19°C° 3.4 mm 2 m/s 707 mmHg 96%
10:00 +19°C° 1.3 mm 2 m/s 707 mmHg 96%
11:00 +19°C° 1.3 mm 3 m/s 707 mmHg 95%
12:00 +19°C° 1.3 mm 3 m/s 707 mmHg 95%
13:00 +19°C° 0.6 mm 3 m/s 706 mmHg 94%
14:00 +19°C° 0.6 mm 3 m/s 706 mmHg 93%
15:00 +18°C° 0.6 mm 3 m/s 706 mmHg 93%
16:00 +18°C° 0.1 mm 3 m/s 706 mmHg 92%
17:00 +18°C° 0.1 mm 3 m/s 706 mmHg 91%
18:00 +18°C° 0.1 mm 3 m/s 706 mmHg 91%
19:00 +18°C° 0.1 mm 3 m/s 706 mmHg 91%
20:00 +18°C° 0.1 mm 2 m/s 707 mmHg 91%
21:00 +18°C° 0.1 mm 2 m/s 707 mmHg 90%
22:00 +18°C° 0.1 mm 2 m/s 707 mmHg 91%
23:00 +18°C° 0.1 mm 2 m/s 707 mmHg 91%

5 Novembro, Quinta-feira

Tempo Temperatura Precipitação Vento Pressão Humidade
00:00 +17°C° 0.1 mm 2 m/s 707 mmHg 91%
01:00 +17°C° 0 mm 2 m/s 707 mmHg 91%
02:00 +17°C° 0 mm 2 m/s 706 mmHg 91%
03:00 +17°C° 0 mm 2 m/s 706 mmHg 92%
04:00 +17°C° 0 mm 2 m/s 706 mmHg 92%
05:00 +16°C° 0 mm 2 m/s 707 mmHg 92%
06:00 +16°C° 0 mm 2 m/s 707 mmHg 92%
07:00 +18°C° 0 mm 2 m/s 707 mmHg 86%
08:00 +19°C° 0 mm 2 m/s 708 mmHg 81%
09:00 +20°C° 0 mm 2 m/s 709 mmHg 75%
10:00 +21°C° 0 mm 2 m/s 709 mmHg 73%
11:00 +23°C° 0 mm 2 m/s 709 mmHg 70%
12:00 +24°C° 0 mm 2 m/s 709 mmHg 68%
13:00 +24°C° 0 mm 2 m/s 708 mmHg 67%
14:00 +25°C° 0 mm 2 m/s 708 mmHg 65%
15:00 +25°C° 0 mm 2 m/s 707 mmHg 64%
16:00 +24°C° 0 mm 2 m/s 707 mmHg 68%
17:00 +24°C° 0 mm 2 m/s 707 mmHg 72%
18:00 +23°C° 0 mm 1 m/s 707 mmHg 76%
19:00 +23°C° 0.1 mm 2 m/s 707 mmHg 78%
20:00 +21°C° 0.1 mm 2 m/s 707 mmHg 79%
21:00 +21°C° 0.1 mm 2 m/s 708 mmHg 81%
22:00 +20°C° 0 mm 2 m/s 708 mmHg 82%
23:00 +20°C° 0 mm 2 m/s 707 mmHg 83%
Mostrar mais